SCP
0 0 0 0 0 1 1 1 1 1 1 1 1 1 1 1 1 1 1 1 1 1 1 1 1 1 1 1 1 1 0 1 1 1 0 0 0 0 0 0 0 0 0
0 0 0 0 1 1 1 1 1 1 1 1 1 1 1 1 1 1 1 1 1 1 1 1 1 1 1 1 1 1 0 1 1 1 0 0 0 0 0 0 0 0 0
0 0 0 1 1 1 1 1 1 1 1 1 1 1 1 1 1 1 1 1 1 1 1 1 1 1 1 1 1 1 0 0 1 0 0 0 0 0 0 0 1 1 1
0 0 1 1 1 1 1 1 1 1 1 1 1 1 1 1 1 1 1 1 0 1 1 1 1 1 1 1 1 1 0 0 0 0 0 0 0 0 0 1 1 1 1
0 0 1 1 1 1 1 0 0 0 0 0 1 1 1 1 1 1 1 1 0 0 0 1 1 0 1 1 1 1 1 0 0 0 0 0 0 0 1 1 1 1 1
0 0 1 1 1 1 0 0 0 0 0 1 1 1 1 1 1 1 1 1 0 0 0 1 1 0 1 1 1 1 1 0 0 0 0 0 0 1 1 1 0 0 1
0 0 0 1 1 1 0 0 0 0 0 1 1 1 1 1 1 1 1 0 0 0 0 0 0 0 0 0 1 1 1 1 0 0 0 0 0 1 1 0 0 0 0
0 0 0 0 1 1 1 0 0 0 0 0 1 1 1 1 1 1 0 0 0 0 0 0 0 0 0 0 1 1 1 1 0 0 0 0 0 0 0 0 0 0 0
0 0 0 0 0 1 1 0 0 0 0 0 1 1 1 1 1 0 0 0 0 0 0 0 0 0 0 0 1 1 1 1 0 0 0 0 0 0 0 0 0 0 0
0 0 0 0 0 0 0 0 0 0 0 0 1 1 1 0 0 0 0 0 0 0 0 0 0 0 0 0 1 1 1 1 0 0 0 0 0 0 0 0 0 0 0
0 0 0 0 0 0 0 0 0 0 0 0 0 0 0 0 0 0 0 0 0 0 0 0 0 0 0 0 1 1 1 1 0 0 0 0 0 0 0 0 0 0 0
0 0 0 0 0 0 0 0 0 0 0 0 0 0 0 0 0 0 0 0 0 0 0 0 0 0 0 0 0 0 0 0 0 0 0 0 0 0 0 0 0 0 0
0 0 0 0 0 0 0 0 0 0 0 0 0 0 0 0 0 0 0 0 0 0 0 0 0 0 0 0 0 0 0 0 0 0 0 0 0 0 0 0 0 0 0
0 0 0 0 0 0 0 0 0 0 0 0 0 0 0 0 0 0 0 0 0 0 0 0 0 0 0 0 0 0 0 0 0 0 0 0 0 0 0 0 0 0 0
0 0 0 0 0 0 0 0 0 0 0 0 0 0 0 0 0 0 0 0 0 0 0 0 0 0 0 0 0 0 0 0 0 0 0 0 1 1 1 0 0 1 1
0 0 0 0 0 0 0 0 0 0 0 0 0 0 0 0 0 0 0 0 0 0 0 0 0 0 0 0 0 0 0 0 0 0 0 0 0 1 1 0 0 1 1
0 0 0 0 0 0 0 0 0 0 0 0 0 0 0 0 0 0 0 0 0 0 0 0 0 0 0 0 0 0 0 0 0 0 0 0 0 0 0 0 0 1 1
0 0 0 0 0 0 0 0 0 0 0 0 0 0 0 0 0 0 0 0 0 0 0 0 0 0 0 0 0 0 0 0 0 0 0 0 0 0 0 0 0 0 1
0 0 0 0 0 0 0 0 0 0 0 0 0 0 0 0 0 0 0 0 0 0 0 0 0 0 0 0 0 0 0 0 0 0 0 0 0 0 0 0 0 0 0
0 0 0 0 0 0 0 0 0 0 0 0 0 0 0 0 0 0 0 0 0 0 0 0 0 0 0 0 0 0 0 0 0 0 0 0 0 0 0 0 0 0 0
0 0 0 0 0 0 0 0 0 0 0 0 0 0 0 0 0 0 0 0 0 0 0 0 0 0 0 0 0 0 0 0 0 0 0 0 0 0 0 0 0 0 0
0 0 0 0 0 0 0 0 0 0 0 0 0 0 0 0 0 0 0 0 0 0 0 0 0 0 0 0 0 0 0 0 0 0 0 0 0 0 0 0 0 0 0
0 0 0 0 0 0 0 0 0 0 0 0 0 0 0 0 0 0 0 0 0 0 0 0 0 0 0 0 0 0 0 0 0 0 0 0 0 0 0 0 0 0 0
0 0 0 0 0 0 0 0 0 0 0 0 0 0 0 0 0 0 0 0 0 0 0 0 0 0 0 0 0 0 0 0 0 0 0 0 0 0 0 0 0 0 0
0 0 0 0 0 0 0 0 0 0 0 0 0 0 0 0 0 0 0 0 0 0 0 0 0 0 0 0 0 0 0 0 0 0 0 0 0 0 0 0 0 0 0
0 0 0 0 0 0 0 0 0 0 0 0 0 0 0 0 0 0 0 0 0 0 0 0 0 0 0 0 0 0 0 0 0 0 0 0 0 0 0 0 0 0 0
Wind_Speed
1 1 2 5 6 7 8 8 9 9 9 10 10 10 11 11 10 10 10 10 10 9 9 9 9 9 8 8 8 7 7 7 7 7 7 6 6 6 5 5 4 2 4
1 0 4 6 6 7 8 8 8 9 9 9 9 9 10 10 10 9 9 9 9 9 9 9 8 8 8 8 8 7 7 7 7 7 7 7 6 5 5 5 4 2 4
3 2 4 6 7 7 8 8 8 8 9 9 8 8 9 9 9 9 9 9 8 8 8 8 8 8 8 8 7 7 7 7 6 7 7 4 4 6 5 5 4 4 4
4 3 4 7 7 7 7 7 8 8 9 8 8 8 8 8 8 8 8 8 8 7 7 7 7 7 7 7 7 6 6 6 7 7 4 4 3 5 5 5 5 5 4
4 3 3 7 8 7 7 8 8 8 8 8 8 8 7 7 7 7 7 7 7 6 6 6 6 6 7 7 7 7 7 7 7 6 3 3 3 5 6 6 5 5 5
3 3 3 7 7 7 7 8 8 8 8 8 8 7 7 7 7 7 7 7 7 6 6 6 6 6 7 7 7 7 7 7 6 4 3 3 3 5 6 6 6 6 6
3 2 3 6 7 7 7 7 8 8 8 8 7 7 7 7 7 7 7 7 6 6 6 6 6 6 6 6 6 6 7 7 4 3 3 3 3 5 7 7 6 6 6
3 3 3 5 7 7 6 6 7 7 7 7 7 7 6 7 7 7 6 7 6 6 6 6 6 6 6 6 6 6 6 6 5 4 3 3 4 6 7 7 7 6 6
3 3 3 3 4 5 6 6 6 6 6 6 6 6 6 6 6 6 6 6 5 5 5 5 5 5 5 5 6 6 7 7 4 3 3 2 4 6 7 7 7 7 6
3 3 3 3 4 4 3 4 5 5 5 5 5 5 5 5 5 5 5 5 5 5 5 5 5 6 6 6 7 7 8 6 4 3 2 2 5 6 7 7 7 8 8
1 1 2 2 3 3 3 4 4 5 5 5 5 5 5 3 3 3 3 4 5 5 6 6 7 7 8 7 8 8 7 3 3 3 2 4 6 7 7 7 8 8 8
1 1 0 1 1 2 2 3 3 3 3 3 3 3 2 2 2 3 5 6 6 7 7 8 9 8 6 4 6 7 3 4 3 3 3 6 7 8 8 8 8 8 9
2 2 1 1 1 1 1 1 2 2 2 2 2 2 2 2 2 3 2 3 4 6 4 5 6 4 4 3 3 4 4 4 3 3 4 8 8 8 8 9 9 9 10
2 2 2 2 1 0 0 1 1 1 1 1 1 1 2 1 2 2 2 2 2 2 3 3 3 4 5 5 5 5 5 4 3 3 5 10 10 10 10 10 10 11 11
2 3 2 2 2 1 1 0 1 1 0 1 1 1 2 2 2 2 2 2 2 2 3 3 3 4 5 5 5 5 5 5 5 5 4 11 12 12 12 12 12 12 13
3 3 1 2 2 2 1 1 1 1 1 1 1 1 2 2 2 2 2 2 2 2 2 3 4 4 4 4 5 5 5 5 5 5 5 7 12 13 13 13 14 14 14
3 2 2 2 3 3 2 2 1 1 1 2 1 2 2 2 3 3 2 2 2 2 3 4 5 4 4 5 6 5 4 5 5 5 5 5 6 11 13 14 14 14 14
3 3 2 3 4 3 3 3 2 2 2 2 2 2 3 3 3 3 3 2 2 3 3 4 4 4 5 4 4 4 4 4 5 5 5 5 5 5 9 14 14 14 15
5 4 3 3 4 4 4 3 3 3 3 2 2 3 3 3 4 3 3 2 2 3 3 3 3 3 4 4 4 5 4 4 4 5 5 5 5 5 5 9 13 14 15
4 4 4 4 4 4 4 3 3 3 3 3 3 3 3 3 4 4 3 3 3 3 3 3 4 4 3 3 5 6 5 4 4 5 5 5 5 6 6 7 6 8 14
5 5 4 4 4 4 3 3 3 2 2 2 3 3 3 3 3 3 3 3 3 3 3 4 4 5 3 2 3 4 4 5 5 5 4 4 5 5 6 6 5 5 6
6 5 4 4 4 4 2 2 2 2 2 1 2 3 3 3 3 3 3 3 3 3 4 3 3 3 2 2 2 3 3 4 4 5 4 4 4 4 5 6 6 6 5
7 7 6 5 4 4 4 3 3 3 3 3 3 2 3 3 3 3 3 3 3 3 3 3 3 4 2 2 2 3 3 1 1 3 4 4 4 4 4 4 6 6 6
7 6 6 5 5 4 4 4 4 3 2 0 0 1 2 3 3 3 3 3 3 3 3 2 2 2 3 2 2 2 2 3 3 1 2 3 4 4 4 4 5 5 6
7 6 6 5 4 4 4 5 5 3 2 1 1 2 3 3 3 3 3 3 3 2 3 3 3 2 2 2 2 2 2 2 2 3 1 2 3 3 3 3 3 4 5
6 6 6 6 4 4 4 4 5 5 4 3 2 2 2 2 2 3 3 3 3 2 2 2 3 3 2 2 2 2 2 2 2 2 2 1 1 2 2 3 3 3 4
Wind_Direction
270 279 157 129 127 123 119 115 115 113 111 109 106 102 100 98 97 98 98 94 89 85 83 83 81 81 79 76 75 77 76 73 72 67 62 63 66 68 71 73 77 71 85
155 132 123 121 119 117 116 116 116 114 114 111 106 102 101 100 99 96 94 92 88 85 82 80 78 77 75 72 71 74 71 67 67 63 55 49 52 59 67 75 78 82 78
99 85 106 110 113 114 115 117 116 112 110 109 108 105 102 101 100 98 93 89 87 83 79 78 75 73 72 70 70 71 68 64 64 59 47 29 31 51 55 64 66 71 69
94 79 102 112 112 112 112 112 111 108 107 107 106 104 103 101 100 98 93 88 85 81 77 75 72 70 68 68 67 68 64 62 62 56 39 22 18 46 49 56 60 63 58
88 73 104 110 112 115 116 115 111 107 106 105 101 102 102 100 99 97 92 88 83 79 74 70 66 65 64 64 62 65 67 67 66 53 34 23 14 43 54 55 55 56 53
91 76 103 109 113 117 118 116 113 111 106 101 98 96 99 98 94 92 88 83 79 75 70 63 60 60 61 61 61 66 69 72 62 43 36 24 17 42 53 55 53 48 44
95 71 95 112 112 112 111 110 110 108 106 100 94 91 93 94 89 88 83 79 77 76 70 64 59 60 60 61 66 73 75 77 66 45 34 21 26 47 52 49 47 44 38
93 67 63 95 102 102 106 110 110 107 104 101 95 89 87 88 85 83 80 76 72 71 69 67 61 59 59 62 68 76 78 76 64 44 33 20 39 52 50 44 38 36 34
82 68 48 47 67 81 92 98 106 104 99 97 92 85 83 80 75 73 68 65 64 62 62 63 61 58 58 63 68 78 80 74 58 33 38 25 46 53 49 42 35 32 32
76 67 51 43 48 38 35 80 98 97 91 83 76 70 65 59 54 54 50 49 52 57 58 59 63 60 63 65 71 78 75 66 51 36 20 31 50 54 51 43 37 37 33
85 56 59 48 46 32 19 44 50 58 54 52 46 43 43 32 26 26 27 42 46 44 45 51 58 63 63 61 70 75 68 56 51 33 15 43 55 53 53 47 42 38 35
193 222 118 69 51 30 21 40 31 35 33 36 34 29 31 29 17 20 16 30 37 39 42 52 59 63 61 50 58 64 57 54 46 27 24 44 55 53 51 48 43 38 35
201 208 177 164 104 65 21 32 38 28 20 22 24 29 36 33 25 26 25 24 29 39 37 43 52 52 58 62 60 58 57 52 37 23 25 44 51 53 51 49 45 41 38
185 213 192 169 146 135 71 31 45 36 16 16 9 44 61 50 40 36 35 32 40 39 46 45 54 60 63 67 72 70 61 53 40 28 29 44 48 48 49 48 46 42 40
192 219 206 170 165 162 121 57 74 49 34 27 27 52 85 84 67 54 45 51 51 49 55 58 60 62 62 64 69 73 65 56 48 41 26 42 47 45 46 47 45 44 41
192 208 181 158 158 142 116 91 84 76 74 71 59 73 97 98 93 81 66 60 56 57 66 67 69 67 62 65 64 62 61 57 49 45 36 31 39 43 43 44 44 42 42
179 170 161 158 133 130 122 112 97 75 77 74 64 78 96 101 100 92 81 68 56 65 75 73 67 64 66 65 59 54 55 54 52 46 39 32 26 36 39 43 42 40 40
157 150 161 151 128 123 117 105 84 70 72 62 58 72 86 95 100 95 91 77 74 77 79 80 71 69 61 62 58 46 45 47 48 46 42 38 31 27 29 38 40 38 39
161 152 139 121 123 120 108 91 79 68 62 57 59 66 75 82 93 97 91 85 88 83 76 88 73 81 81 76 72 53 43 42 35 41 40 40 37 32 26 29 34 35 36
148 135 125 114 116 113 97 83 70 57 46 46 51 60 73 78 89 93 87 80 85 87 76 80 85 72 76 80 79 62 46 41 40 36 32 34 35 34 32 33 27 25 32
138 136 138 133 134 126 109 102 93 73 42 40 42 56 67 75 85 90 90 81 84 92 96 99 95 84 69 68 83 61 36 38 46 34 26 32 34 31 36 36 29 24 20
156 156 148 151 149 143 128 118 116 111 79 55 37 45 49 66 79 97 97 95 93 97 94 97 104 100 69 42 100 94 47 15 18 25 23 33 30 30 35 35 29 25 20
170 171 166 164 155 145 130 108 87 64 49 37 30 25 19 47 71 88 101 103 99 104 114 113 116 117 117 47 56 125 130 164 354 1 18 27 25 31 22 22 30 22 21
179 170 159 160 154 145 138 133 130 123 118 123 62 37 31 44 61 76 94 101 100 98 107 117 109 114 125 119 61 55 105 142 135 55 357 8 24 32 20 21 18 16 19
170 164 155 153 151 149 145 143 133 123 126 108 77 71 50 38 47 63 84 92 96 98 105 102 103 106 121 137 137 120 90 73 93 127 98 353 9 10 12 13 12 13 14
159 155 148 151 156 155 150 149 146 143 140 125 104 88 57 40 37 50 74 80 87 94 102 106 106 108 114 120 126 133 144 138 143 130 136 131 9 339 356 4 12 8 8